Location: Byszew
(52.1813°N, 19.2693°E)
Time: 10:03:09
(UTC+00:00)

AIST 2D - Pass Details

Date: 27 June 2022
Orbit: 433 x 444 km, 97.0° (Epoch: 07 August)

Event Time Altitude Azimuth Distance (km) Brightness Sun altitude
Rises 21:42:00 0° 358° (N) 2,428 ? -13.2°
Reaches altitude 10° 21:44:38 10° 335° (NNW) 1,554 ? -13.3°
Maximum altitude 21:46:37 15° 298° (WNW) 1,274 ? -13.4°
Drops below altitude 10° 21:48:35 10° 262° (W) 1,547 ? -13.5°
Sets 21:51:13 0° 238° (WSW) 2,412 ? -13.6°
